Time,TemperatureF,DewpointF,PressureIn,WindDirection,WindDirectionDegrees,WindSpeedMPH,WindSpeedGustMPH,Humidity,HourlyPrecipIn,Conditions,Clouds,dailyrainin,SolarRadiationWatts/m^2,SoftwareType,DateUTC
2013-02-14 00:02:00,74.0,70.0,-100.00,SW,218,4.0,-999.0,89,0.00,,,-99.99,0.000000,,2013-02-14 05:02:00,
2013-02-14 00:11:00,74.0,70.0,-100.00,SSW,213,5.0,-999.0,90,0.00,,,-99.99,0.000000,,2013-02-14 05:11:00,
2013-02-14 00:22:00,74.0,70.0,-100.00,SSW,213,5.0,-999.0,90,0.00,,,-99.99,0.000000,,2013-02-14 05:22:00,
2013-02-14 00:32:00,73.0,70.0,-100.00,SSW,210,4.0,-999.0,90,0.00,,,-99.99,0.000000,,2013-02-14 05:32:00,
2013-02-14 00:42:00,73.0,70.0,-100.00,SSW,213,4.0,-999.0,91,0.00,,,-99.99,0.000000,,2013-02-14 05:42:00,
2013-02-14 00:52:00,73.0,70.0,-100.00,SSW,213,4.0,-999.0,91,0.00,,,-99.99,0.000000,,2013-02-14 05:52:00,
2013-02-14 01:02:00,73.0,70.0,-100.00,SSW,212,5.0,-999.0,91,0.00,,,-99.99,0.000000,,2013-02-14 06:02:00,
2013-02-14 01:11:00,73.0,70.0,-100.00,SSW,209,5.0,-999.0,91,0.00,,,-99.99,0.000000,,2013-02-14 06:11:00,
2013-02-14 01:21:00,73.0,70.0,-100.00,SSW,209,5.0,-999.0,91,0.00,,,-99.99,0.000000,,2013-02-14 06:21:00,
2013-02-14 01:32:00,73.0,70.0,-100.00,SSW,200,5.0,-999.0,91,0.00,,,-99.99,0.000000,,2013-02-14 06:32:00,
2013-02-14 01:42:00,72.0,69.0,-100.00,SSW,193,6.0,-999.0,89,0.00,,,-99.99,0.000000,,2013-02-14 06:42:00,
2013-02-14 01:52:00,72.0,69.0,-100.00,SSW,193,6.0,-999.0,89,0.00,,,-99.99,0.000000,,2013-02-14 06:52:00,
2013-02-14 02:01:00,73.0,70.0,-100.00,SSW,203,5.0,-999.0,91,0.00,,,-99.99,0.000000,,2013-02-14 07:01:00,
2013-02-14 02:11:00,73.0,70.0,-100.00,SSW,205,6.0,-999.0,91,0.00,,,-99.99,0.000000,,2013-02-14 07:11:00,
2013-02-14 02:21:00,73.0,70.0,-100.00,SSW,205,6.0,-999.0,91,0.00,,,-99.99,0.000000,,2013-02-14 07:21:00,
2013-02-14 02:32:00,73.0,70.0,-100.00,SSW,206,7.0,-999.0,91,0.00,,,-99.99,0.000000,,2013-02-14 07:32:00,
2013-02-14 02:42:00,73.0,70.0,-100.00,SSW,208,6.0,-999.0,90,0.00,,,-99.99,0.000000,,2013-02-14 07:42:00,
2013-02-14 02:52:00,73.0,70.0,-100.00,SSW,208,6.0,-999.0,90,0.00,,,-99.99,0.000000,,2013-02-14 07:52:00,
2013-02-14 03:01:00,73.0,70.0,-100.00,SSW,209,4.0,-999.0,90,0.00,,,-99.99,0.000000,,2013-02-14 08:01:00,
2013-02-14 03:11:00,73.0,70.0,-100.00,SSW,207,5.0,-999.0,90,0.00,,,-99.99,0.000000,,2013-02-14 08:11:00,
2013-02-14 03:21:00,73.0,70.0,-100.00,SSW,207,5.0,-999.0,90,0.00,,,-99.99,0.000000,,2013-02-14 08:21:00,
2013-02-14 03:32:00,73.0,70.0,-100.00,SSW,205,4.0,-999.0,90,0.00,,,-99.99,0.000000,,2013-02-14 08:32:00,
2013-02-14 03:43:00,73.0,70.0,-100.00,SSW,203,4.0,-999.0,90,0.00,,,-99.99,0.000000,,2013-02-14 08:43:00,
2013-02-14 03:52:00,73.0,70.0,-100.00,SSW,203,4.0,-999.0,90,0.00,,,-99.99,0.000000,,2013-02-14 08:52:00,
2013-02-14 04:02:00,72.0,70.0,-100.00,SSW,205,4.0,-999.0,90,0.00,,,-99.99,0.000000,,2013-02-14 09:02:00,
2013-02-14 04:11:00,72.0,70.0,-100.00,SSW,200,3.0,-999.0,90,0.00,,,-99.99,0.000000,,2013-02-14 09:11:00,
2013-02-14 04:21:00,72.0,70.0,-100.00,SSW,200,3.0,-999.0,90,0.00,,,-99.99,0.000000,,2013-02-14 09:21:00,
2013-02-14 04:32:00,72.0,70.0,-100.00,SW,226,3.0,-999.0,91,0.00,,,-99.99,0.000000,,2013-02-14 09:32:00,
2013-02-14 04:42:00,72.0,69.0,-100.00,West,263,2.0,-999.0,91,0.00,,,-99.99,0.000000,,2013-02-14 09:42:00,
2013-02-14 04:52:00,72.0,69.0,-100.00,West,263,2.0,-999.0,91,0.00,,,-99.99,0.000000,,2013-02-14 09:52:00,
2013-02-14 05:02:00,71.0,69.0,-100.00,West,269,1.0,-999.0,91,0.00,,,-99.99,0.000000,,2013-02-14 10:02:00,
2013-02-14 05:11:00,71.0,69.0,-100.00,West,274,1.0,-999.0,92,0.00,,,-99.99,0.000000,,2013-02-14 10:11:00,
2013-02-14 05:21:00,71.0,69.0,-100.00,West,274,1.0,-999.0,92,0.00,,,-99.99,0.000000,,2013-02-14 10:21:00,
2013-02-14 05:31:00,71.0,69.0,-100.00,NNW,348,2.0,-999.0,92,0.00,,,-99.99,0.000000,,2013-02-14 10:31:00,
2013-02-14 05:42:00,71.0,68.0,-100.00,North,4,1.0,-999.0,92,0.00,,,-99.99,0.000000,,2013-02-14 10:42:00,
2013-02-14 05:52:00,71.0,68.0,-100.00,North,4,1.0,-999.0,92,0.00,,,-99.99,0.000000,,2013-02-14 10:52:00,
2013-02-14 06:02:00,71.0,69.0,-100.00,NNW,345,3.0,-999.0,93,0.00,,,-99.99,0.000000,,2013-02-14 11:02:00,
2013-02-14 06:11:00,71.0,69.0,-100.00,NE,40,2.0,-999.0,93,0.00,,,-99.99,0.000000,,2013-02-14 11:11:00,
2013-02-14 06:21:00,71.0,69.0,-100.00,NE,40,2.0,-999.0,93,0.00,,,-99.99,0.000000,,2013-02-14 11:21:00,
2013-02-14 06:32:00,72.0,70.0,-100.00,North,354,2.0,-999.0,93,0.00,,,-99.99,0.000000,,2013-02-14 11:32:00,
2013-02-14 06:42:00,72.0,70.0,-100.00,NNW,340,3.0,-999.0,93,0.00,,,-99.99,0.000000,,2013-02-14 11:42:00,
2013-02-14 06:52:00,72.0,70.0,-100.00,NNW,340,3.0,-999.0,93,0.00,,,-99.99,0.000000,,2013-02-14 11:52:00,
2013-02-14 07:02:00,72.0,70.0,-100.00,North,357,4.0,-999.0,92,0.00,,,-99.99,0.000000,,2013-02-14 12:02:00,
2013-02-14 07:12:00,71.0,69.0,-100.00,North,360,3.0,-999.0,92,0.00,,,-99.99,1.500000,,2013-02-14 12:12:00,
2013-02-14 07:22:00,71.0,69.0,-100.00,North,360,3.0,-999.0,92,0.00,,,-99.99,1.500000,,2013-02-14 12:22:00,
2013-02-14 07:32:00,71.0,69.0,-100.00,North,6,3.0,-999.0,92,0.00,,,-99.99,8.600000,,2013-02-14 12:32:00,
2013-02-14 07:42:00,71.0,69.0,-100.00,NNE,28,2.0,-999.0,92,0.00,,,-99.99,25.500000,,2013-02-14 12:42:00,
2013-02-14 07:53:00,71.0,69.0,-100.00,NNE,28,2.0,-999.0,92,0.00,,,-99.99,25.500000,,2013-02-14 12:53:00,
2013-02-14 08:02:00,71.0,69.0,-100.00,NNE,32,2.0,-999.0,92,0.00,,,-99.99,82.500000,,2013-02-14 13:02:00,
2013-02-14 08:11:00,72.0,69.0,-100.00,NNE,23,3.0,-999.0,92,0.00,,,-99.99,133.399994,,2013-02-14 13:11:00,
2013-02-14 08:21:00,72.0,69.0,-100.00,NNE,23,3.0,-999.0,92,0.00,,,-99.99,133.399994,,2013-02-14 13:21:00,
2013-02-14 08:32:00,72.0,70.0,-100.00,ENE,57,3.0,-999.0,91,0.00,,,-99.99,154.899994,,2013-02-14 13:32:00,
2013-02-14 08:42:00,73.0,70.0,-100.00,NE,42,3.0,-999.0,91,0.00,,,-99.99,324.100006,,2013-02-14 13:42:00,
2013-02-14 08:52:00,73.0,70.0,-100.00,NE,42,3.0,-999.0,91,0.00,,,-99.99,324.100006,,2013-02-14 13:52:00,
2013-02-14 09:01:00,74.0,71.0,-100.00,ENE,61,3.0,-999.0,89,0.00,,,-99.99,317.700012,,2013-02-14 14:01:00,
2013-02-14 09:11:00,75.0,71.0,-100.00,NNE,13,2.0,-999.0,87,0.00,,,-99.99,224.500000,,2013-02-14 14:11:00,
2013-02-14 09:21:00,75.0,71.0,-100.00,NNE,13,2.0,-999.0,87,0.00,,,-99.99,224.500000,,2013-02-14 14:21:00,
2013-02-14 09:31:00,76.0,71.0,-100.00,North,356,3.0,-999.0,86,0.00,,,-99.99,215.300003,,2013-02-14 14:31:00,
2013-02-14 09:42:00,76.0,71.0,-100.00,NNW,347,4.0,-999.0,85,0.00,,,-99.99,191.199997,,2013-02-14 14:42:00,
2013-02-14 09:52:00,76.0,71.0,-100.00,NNW,347,4.0,-999.0,85,0.00,,,-99.99,191.199997,,2013-02-14 14:52:00,
2013-02-14 10:02:00,75.0,70.0,-100.00,NW,313,4.0,-999.0,84,0.00,,,-99.99,135.899994,,2013-02-14 15:02:00,
2013-02-14 10:11:00,75.0,70.0,-100.00,NW,316,4.0,-999.0,84,0.00,,,-99.99,282.500000,,2013-02-14 15:11:00,
2013-02-14 10:21:00,75.0,70.0,-100.00,NW,316,4.0,-999.0,84,0.00,,,-99.99,282.500000,,2013-02-14 15:21:00,
2013-02-14 10:32:00,75.0,69.0,-100.00,NNW,329,4.0,-999.0,83,0.00,,,-99.99,271.299988,,2013-02-14 15:32:00,
2013-02-14 10:42:00,76.0,70.0,-100.00,NNW,332,3.0,-999.0,82,0.00,,,-99.99,586.900024,,2013-02-14 15:42:00,
2013-02-14 10:52:00,76.0,70.0,-100.00,NNW,332,3.0,-999.0,82,0.00,,,-99.99,586.900024,,2013-02-14 15:52:00,
2013-02-14 11:02:00,78.0,70.0,-100.00,North,356,3.0,-999.0,78,0.00,,,-99.99,550.799988,,2013-02-14 16:02:00,
2013-02-14 11:11:00,78.0,71.0,-100.00,WNW,301,3.0,-999.0,77,0.00,,,-99.99,468.700012,,2013-02-14 16:11:00,
2013-02-14 11:21:00,78.0,71.0,-100.00,WNW,301,3.0,-999.0,77,0.00,,,-99.99,468.700012,,2013-02-14 16:21:00,
2013-02-14 11:32:00,79.0,71.0,-100.00,WNW,297,2.0,-999.0,76,0.00,,,-99.99,603.500000,,2013-02-14 16:32:00,
2013-02-14 11:42:00,81.0,71.0,-100.00,West,264,3.0,-999.0,73,0.00,,,-99.99,659.200012,,2013-02-14 16:42:00,
2013-02-14 11:52:00,81.0,71.0,-100.00,West,264,3.0,-999.0,73,0.00,,,-99.99,659.200012,,2013-02-14 16:52:00,
2013-02-14 12:01:00,80.0,71.0,-100.00,WSW,245,5.0,-999.0,73,0.00,,,-99.99,378.000000,,2013-02-14 17:01:00,
2013-02-14 12:11:00,82.0,72.0,-100.00,West,266,7.0,-999.0,71,0.00,,,-99.99,660.299988,,2013-02-14 17:11:00,
2013-02-14 12:21:00,82.0,72.0,-100.00,West,266,7.0,-999.0,71,0.00,,,-99.99,660.299988,,2013-02-14 17:21:00,
2013-02-14 12:32:00,83.0,72.0,-100.00,WSW,255,7.0,-999.0,68,0.00,,,-99.99,672.500000,,2013-02-14 17:32:00,
2013-02-14 12:42:00,84.0,71.0,-100.00,WSW,242,8.0,-999.0,66,0.00,,,-99.99,851.000000,,2013-02-14 17:42:00,
2013-02-14 12:52:00,84.0,71.0,-100.00,WSW,242,8.0,-999.0,66,0.00,,,-99.99,851.000000,,2013-02-14 17:52:00,
2013-02-14 13:01:00,85.0,71.0,-100.00,WSW,241,7.0,-999.0,63,0.00,,,-99.99,792.000000,,2013-02-14 18:01:00,
2013-02-14 13:11:00,85.0,71.0,-100.00,SW,226,7.0,-999.0,62,0.00,,,-99.99,495.000000,,2013-02-14 18:11:00,
2013-02-14 13:23:00,85.0,71.0,-100.00,SW,226,7.0,-999.0,62,0.00,,,-99.99,495.000000,,2013-02-14 18:23:00,
2013-02-14 13:32:00,81.0,72.0,-100.00,ESE,122,8.0,-999.0,71,0.00,,,-99.99,513.000000,,2013-02-14 18:32:00,
2013-02-14 13:42:00,80.0,72.0,-100.00,East,91,9.0,-999.0,76,0.00,,,-99.99,289.799988,,2013-02-14 18:42:00,
2013-02-14 13:52:00,80.0,72.0,-100.00,East,91,9.0,-999.0,76,0.00,,,-99.99,289.799988,,2013-02-14 18:52:00,
2013-02-14 14:02:00,81.0,73.0,-100.00,East,85,6.0,-999.0,76,0.00,,,-99.99,403.100006,,2013-02-14 19:02:00,
2013-02-14 14:11:00,82.0,73.0,-100.00,East,79,5.0,-999.0,73,0.00,,,-99.99,544.500000,,2013-02-14 19:11:00,
2013-02-14 14:21:00,82.0,73.0,-100.00,East,79,5.0,-999.0,73,0.00,,,-99.99,544.500000,,2013-02-14 19:21:00,
2013-02-14 14:32:00,82.0,72.0,-100.00,East,97,7.0,-999.0,72,0.00,,,-99.99,295.399994,,2013-02-14 19:32:00,
2013-02-14 14:42:00,81.0,72.0,-100.00,ESE,111,7.0,-999.0,75,0.00,,,-99.99,133.300003,,2013-02-14 19:42:00,
2013-02-14 14:52:00,81.0,72.0,-100.00,ESE,111,7.0,-999.0,75,0.00,,,-99.99,133.300003,,2013-02-14 19:52:00,
2013-02-14 15:01:00,79.0,72.0,-100.00,East,97,5.0,-999.0,79,0.00,,,-99.99,115.900002,,2013-02-14 20:01:00,
2013-02-14 15:11:00,81.0,73.0,-100.00,SE,145,6.0,-999.0,77,0.00,,,-99.99,269.000000,,2013-02-14 20:11:00,
2013-02-14 15:21:00,81.0,73.0,-100.00,SE,145,6.0,-999.0,77,0.00,,,-99.99,269.000000,,2013-02-14 20:21:00,
2013-02-14 15:32:00,82.0,73.0,-100.00,SSW,196,7.0,-999.0,72,0.00,,,-99.99,163.800003,,2013-02-14 20:32:00,
2013-02-14 15:42:00,83.0,72.0,-100.00,SW,218,8.0,-999.0,70,0.00,,,-99.99,221.199997,,2013-02-14 20:42:00,
2013-02-14 15:52:00,83.0,72.0,-100.00,SW,218,8.0,-999.0,70,0.00,,,-99.99,221.199997,,2013-02-14 20:52:00,
2013-02-14 16:02:00,84.0,69.0,-100.00,SW,232,12.0,-999.0,60,0.00,,,-99.99,179.000000,,2013-02-14 21:02:00,
2013-02-14 16:11:00,84.0,69.0,-100.00,WSW,241,15.0,-999.0,60,0.00,,,-99.99,320.700012,,2013-02-14 21:11:00,
2013-02-14 16:21:00,84.0,69.0,-100.00,WSW,241,15.0,-999.0,60,0.00,,,-99.99,320.700012,,2013-02-14 21:21:00,
2013-02-14 16:31:00,84.0,70.0,-100.00,SW,231,14.0,-999.0,61,0.00,,,-99.99,252.399994,,2013-02-14 21:31:00,
2013-02-14 16:42:00,85.0,69.0,-100.00,WSW,238,14.0,-999.0,59,0.00,,,-99.99,343.299988,,2013-02-14 21:42:00,
2013-02-14 16:52:00,85.0,69.0,-100.00,WSW,238,14.0,-999.0,59,0.00,,,-99.99,343.299988,,2013-02-14 21:52:00,
2013-02-14 17:02:00,84.0,69.0,-100.00,SW,233,14.0,-999.0,61,0.00,,,-99.99,170.000000,,2013-02-14 22:02:00,
2013-02-14 17:11:00,83.0,70.0,-100.00,SW,234,15.0,-999.0,64,0.00,,,-99.99,157.899994,,2013-02-14 22:11:00,
2013-02-14 17:21:00,83.0,70.0,-100.00,SW,234,15.0,-999.0,64,0.00,,,-99.99,157.899994,,2013-02-14 22:21:00,
2013-02-14 17:31:00,82.0,70.0,-100.00,WSW,246,13.0,-999.0,68,0.00,,,-99.99,37.599998,,2013-02-14 22:31:00,
2013-02-14 17:42:00,81.0,70.0,-100.00,WSW,241,14.0,-999.0,69,0.00,,,-99.99,30.200001,,2013-02-14 22:42:00,
2013-02-14 17:52:00,81.0,70.0,-100.00,WSW,241,14.0,-999.0,69,0.00,,,-99.99,30.200001,,2013-02-14 22:52:00,
2013-02-14 18:01:00,81.0,70.0,-100.00,WSW,249,13.0,-999.0,70,0.00,,,-99.99,17.700001,,2013-02-14 23:01:00,
2013-02-14 18:11:00,81.0,71.0,-100.00,WSW,252,11.0,-999.0,71,0.00,,,-99.99,4.800000,,2013-02-14 23:11:00,
2013-02-14 18:21:00,81.0,71.0,-100.00,WSW,252,11.0,-999.0,71,0.00,,,-99.99,4.800000,,2013-02-14 23:21:00,
2013-02-14 18:32:00,80.0,71.0,-100.00,West,275,14.0,-999.0,72,0.00,,,-99.99,0.100000,,2013-02-14 23:32:00,
2013-02-14 18:42:00,72.0,66.0,-100.00,NW,317,14.0,-999.0,81,0.00,,,-99.99,0.000000,,2013-02-14 23:42:00,
2013-02-14 18:52:00,72.0,66.0,-100.00,NW,317,14.0,-999.0,81,0.00,,,-99.99,0.000000,,2013-02-14 23:52:00,
2013-02-14 19:01:00,69.0,66.0,-100.00,NNW,347,9.0,-999.0,88,0.03,,,-99.99,0.800000,,2013-02-15 00:01:00,
2013-02-14 19:11:00,68.0,65.0,-100.00,North,356,8.0,-999.0,90,0.08,,,-99.99,0.800000,,2013-02-15 00:11:00,
2013-02-14 19:22:00,68.0,65.0,-100.00,North,356,8.0,-999.0,90,0.08,,,-99.99,0.800000,,2013-02-15 00:22:00,
2013-02-14 19:32:00,67.0,64.0,-100.00,North,8,9.0,-999.0,91,0.52,,,-99.99,0.700000,,2013-02-15 00:32:00,
2013-02-14 19:42:00,66.0,64.0,-100.00,North,9,8.0,-999.0,92,0.33,,,-99.99,0.600000,,2013-02-15 00:42:00,
2013-02-14 19:52:00,66.0,64.0,-100.00,North,9,8.0,-999.0,92,0.33,,,-99.99,0.600000,,2013-02-15 00:52:00,
2013-02-14 20:02:00,65.0,63.0,-100.00,NNE,12,8.0,-999.0,92,0.08,,,-99.99,0.400000,,2013-02-15 01:02:00,
2013-02-14 20:11:00,65.0,63.0,-100.00,North,7,8.0,-999.0,93,0.03,,,-99.99,0.200000,,2013-02-15 01:11:00,
2013-02-14 20:21:00,65.0,63.0,-100.00,North,7,8.0,-999.0,93,0.03,,,-99.99,0.200000,,2013-02-15 01:21:00,
2013-02-14 20:32:00,65.0,63.0,-100.00,North,10,8.0,-999.0,93,0.03,,,-99.99,0.400000,,2013-02-15 01:32:00,
2013-02-14 20:41:00,64.0,62.0,-100.00,North,10,7.0,-999.0,93,0.00,,,-99.99,0.200000,,2013-02-15 01:41:00,
2013-02-14 20:52:00,64.0,62.0,-100.00,North,10,7.0,-999.0,93,0.00,,,-99.99,0.200000,,2013-02-15 01:52:00,
2013-02-14 21:01:00,64.0,62.0,-100.00,North,6,8.0,-999.0,93,0.00,,,-99.99,0.200000,,2013-02-15 02:01:00,
2013-02-14 21:11:00,64.0,62.0,-100.00,North,1,9.0,-999.0,92,0.08,,,-99.99,0.400000,,2013-02-15 02:11:00,
2013-02-14 21:21:00,64.0,62.0,-100.00,North,1,9.0,-999.0,92,0.08,,,-99.99,0.400000,,2013-02-15 02:21:00,
2013-02-14 21:31:00,64.0,62.0,-100.00,North,356,7.0,-999.0,92,0.03,,,-99.99,0.600000,,2013-02-15 02:31:00,
2013-02-14 21:42:00,63.0,61.0,-100.00,North,1,7.0,-999.0,92,0.30,,,-99.99,0.600000,,2013-02-15 02:42:00,
2013-02-14 21:52:00,63.0,61.0,-100.00,North,1,7.0,-999.0,92,0.30,,,-99.99,0.600000,,2013-02-15 02:52:00,
2013-02-14 22:02:00,63.0,61.0,-100.00,North,11,6.0,-999.0,93,0.08,,,-99.99,0.300000,,2013-02-15 03:02:00,
2013-02-14 22:11:00,63.0,61.0,-100.00,North,360,6.0,-999.0,93,0.00,,,-99.99,0.100000,,2013-02-15 03:11:00,
2013-02-14 22:22:00,63.0,61.0,-100.00,North,360,6.0,-999.0,93,0.00,,,-99.99,0.100000,,2013-02-15 03:22:00,
2013-02-14 22:32:00,63.0,61.0,-100.00,North,1,6.0,-999.0,93,0.00,,,-99.99,0.000000,,2013-02-15 03:32:00,
2013-02-14 22:42:00,63.0,61.0,-100.00,North,4,6.0,-999.0,93,0.00,,,-99.99,0.100000,,2013-02-15 03:42:00,
2013-02-14 22:52:00,63.0,61.0,-100.00,North,4,6.0,-999.0,93,0.00,,,-99.99,0.100000,,2013-02-15 03:52:00,
2013-02-14 23:01:00,63.0,61.0,-100.00,North,7,6.0,-999.0,93,0.00,,,-99.99,0.100000,,2013-02-15 04:01:00,
2013-02-14 23:11:00,63.0,61.0,-100.00,North,6,5.0,-999.0,93,0.08,,,-99.99,0.400000,,2013-02-15 04:11:00,
2013-02-14 23:21:00,63.0,61.0,-100.00,North,6,5.0,-999.0,93,0.08,,,-99.99,0.400000,,2013-02-15 04:21:00,
2013-02-14 23:32:00,63.0,61.0,-100.00,NNE,12,5.0,-999.0,93,0.03,,,-99.99,0.500000,,2013-02-15 04:32:00,
2013-02-14 23:42:00,63.0,61.0,-100.00,North,11,4.0,-999.0,93,0.03,,,-99.99,0.400000,,2013-02-15 04:42:00,
2013-02-14 23:52:00,63.0,61.0,-100.00,North,11,4.0,-999.0,93,0.03,,,-99.99,0.400000,,2013-02-15 04:52:00,